This is the latest recevied weather packets stored in our database for station/object JF2ZGN-13. If no packets are shown the sender has not sent any weather packets the latest 10 day(s).
| Time | Temp. | Humidity | Pressure | Rain* | Wind** | Luminosity | Snow |
|---|---|---|---|---|---|---|---|
| 1777523459 | 7.22° C | 58% | 910.8 hPa | 5.33 mm | - | - | - |
| 1777522859 | 7.22° C | 57% | 910.8 hPa | 5.08 mm | - | - | - |
| 1777522258 | 7.22° C | 58% | 910.9 hPa | 5.08 mm | - | - | - |
| 1777521658 | 7.22° C | 58% | 910.9 hPa | 5.08 mm | - | - | - |
| 1777521058 | 7.22° C | 58% | 911 hPa | 4.83 mm | - | - | - |
| 1777520458 | 7.22° C | 59% | 911 hPa | 4.83 mm | - | - | - |
| 1777519856 | 6.67° C | 54% | 911.2 hPa | 4.83 mm | - | - | - |
| 1777519256 | 6.67° C | 53% | 911.3 hPa | 4.57 mm | - | - | - |
| 1777518656 | 6.67° C | 55% | 911.2 hPa | 4.57 mm | - | - | - |
| 1777518055 | 6.67° C | 55% | 911.3 hPa | 4.57 mm | - | - | - |
| 1777517455 | 7.22° C | 58% | 911.4 hPa | 4.32 mm | - | - | - |
| 1777516855 | 7.22° C | 58% | 911.5 hPa | 4.32 mm | - | - | - |
| 1777516254 | 7.22° C | 56% | 911.6 hPa | 4.06 mm | - | - | - |
| 1777515654 | 7.22° C | 55% | 911.6 hPa | 4.06 mm | - | - | - |
| 1777515053 | 6.67° C | 58% | 911.5 hPa | 3.81 mm | - | - | - |
| 1777514452 | 6.67° C | 55% | 911.5 hPa | 3.56 mm | - | - | - |
| 1777513852 | 6.67° C | 55% | 911.5 hPa | 3.56 mm | - | - | - |
| 1777513252 | 6.67° C | 55% | 911.4 hPa | 3.3 mm | - | - | - |
| 1777512651 | 6.67° C | 55% | 911.3 hPa | 3.3 mm | - | - | - |
| 1777512051 | 7.22° C | 57% | 911.4 hPa | 3.3 mm | - | - | - |
| 1777511450 | 7.22° C | 59% | 911.3 hPa | 3.3 mm | - | - | - |
| 1777508451 | 7.78° C | 53% | 911.2 hPa | 2.54 mm | - | - | - |
| 1777507848 | 7.78° C | 58% | 911.1 hPa | 2.29 mm | - | - | - |
| 1777507246 | 7.78° C | 53% | 911.1 hPa | 2.03 mm | - | - | - |
| 1777505445 | 7.78° C | 52% | 910.8 hPa | 1.52 mm | - | - | - |
* Rain since midnight (hover to see other rain measurements)
** Current wind speed in m/s (hover to see current wind gust speed)